When you browse on this site, cookies collect data to enhance your experience and personalize the content and advertising you see.
Visit our Privacy Policy to learn more. By continuing to use the site, you agree to this use of cookies and data.
  • In United Kingdom
  • List of Countries
  • For 7 days
  • Water Temperature
  • Satellite Maps
  • Weather Map
  • Weather Widgets
  • user-avatar
    Login

    Hourly Weather London

    Today, 19 December, Wednesday

    Time Temperature Precipitation Wind Pressure Humidity
    00:00 +7°C° 0 mm 3 mps 751 mmHg 92%
    01:00 +6°C° 0 mm 4 mps 751 mmHg 91%
    02:00 +7°C° 0 mm 4 mps 751 mmHg 90%
    03:00 +7°C° 0 mm 5 mps 751 mmHg 89%
    04:00 +7°C° 0.2 mm 5 mps 751 mmHg 88%
    05:00 +7°C° 0.2 mm 5 mps 751 mmHg 87%
    06:00 +7°C° 0.2 mm 5 mps 751 mmHg 87%
    07:00 +7°C° 0.3 mm 5 mps 751 mmHg 85%
    08:00 +7°C° 0.3 mm 5 mps 752 mmHg 84%
    09:00 +7°C° 0.3 mm 5 mps 752 mmHg 83%
    10:00 +8°C° 0.1 mm 5 mps 752 mmHg 80%
    11:00 +8°C° 0.1 mm 5 mps 752 mmHg 77%
    12:00 +9°C° 0.1 mm 5 mps 752 mmHg 74%
    13:00 +8°C° 0 mm 5 mps 752 mmHg 75%
    14:00 +8°C° 0 mm 5 mps 752 mmHg 76%
    15:00 +8°C° 0 mm 4 mps 752 mmHg 77%
    16:00 +7°C° 0 mm 4 mps 752 mmHg 78%
    17:00 +7°C° 0 mm 5 mps 752 mmHg 79%
    18:00 +6°C° 0 mm 5 mps 752 mmHg 81%
    19:00 +6°C° 0.1 mm 5 mps 752 mmHg 81%
    20:00 +7°C° 0.1 mm 5 mps 752 mmHg 82%
    21:00 +7°C° 0.1 mm 5 mps 752 mmHg 82%
    22:00 +7°C° 0.2 mm 5 mps 752 mmHg 82%
    23:00 +6°C° 0.2 mm 5 mps 752 mmHg 82%

    Tomorrow, 20 December, Thursday

    Time Temperature Precipitation Wind Pressure Humidity
    00:00 +6°C° 0.2 mm 5 mps 752 mmHg 82%
    01:00 +6°C° 0.1 mm 5 mps 752 mmHg 82%
    02:00 +6°C° 0.1 mm 5 mps 752 mmHg 82%
    03:00 +6°C° 0.1 mm 5 mps 752 mmHg 82%
    04:00 +6°C° 0 mm 5 mps 752 mmHg 83%
    05:00 +6°C° 0 mm 5 mps 752 mmHg 83%
    06:00 +6°C° 0 mm 5 mps 753 mmHg 84%
    07:00 +6°C° 0 mm 5 mps 753 mmHg 84%
    08:00 +6°C° 0 mm 5 mps 753 mmHg 84%
    09:00 +5°C° 0 mm 6 mps 754 mmHg 84%
    10:00 +7°C° 0 mm 6 mps 754 mmHg 81%
    11:00 +8°C° 0 mm 6 mps 754 mmHg 78%
    12:00 +8°C° 0 mm 7 mps 754 mmHg 75%
    13:00 +8°C° 0.2 mm 7 mps 754 mmHg 75%
    14:00 +8°C° 0.2 mm 7 mps 754 mmHg 74%
    15:00 +8°C° 0.2 mm 6 mps 754 mmHg 74%
    16:00 +8°C° 0.2 mm 6 mps 754 mmHg 76%
    17:00 +8°C° 0.2 mm 6 mps 754 mmHg 77%
    18:00 +7°C° 0.2 mm 6 mps 754 mmHg 79%
    19:00 +7°C° 0 mm 6 mps 754 mmHg 79%
    20:00 +7°C° 0 mm 5 mps 753 mmHg 79%
    21:00 +7°C° 0 mm 5 mps 753 mmHg 80%
    22:00 +7°C° 0.3 mm 4 mps 753 mmHg 83%
    23:00 +7°C° 0.3 mm 4 mps 752 mmHg 87%

    Day after tomorrow, 21 December, Friday

    Time Temperature Precipitation Wind Pressure Humidity
    00:00 +8°C° 0.3 mm 3 mps 751 mmHg 91%
    01:00 +8°C° 1.2 mm 4 mps 750 mmHg 92%
    02:00 +9°C° 1.2 mm 5 mps 749 mmHg 94%
    03:00 +10°C° 1.2 mm 5 mps 748 mmHg 95%
    04:00 +10°C° 0.4 mm 6 mps 747 mmHg 93%
    05:00 +11°C° 0.4 mm 7 mps 747 mmHg 92%
    06:00 +12°C° 0.4 mm 8 mps 746 mmHg 91%
    07:00 +11°C° 0.1 mm 8 mps 747 mmHg 86%
    08:00 +11°C° 0.1 mm 9 mps 747 mmHg 81%
    09:00 +10°C° 0.1 mm 9 mps 748 mmHg 75%
    10:00 +10°C° 0 mm 9 mps 749 mmHg 74%
    11:00 +8°C° 0 mm 9 mps 750 mmHg 73%
    12:00 +8°C° 0 mm 9 mps 750 mmHg 72%
    13:00 +8°C° 0 mm 9 mps 751 mmHg 72%
    14:00 +9°C° 0 mm 8 mps 751 mmHg 72%
    15:00 +9°C° 0 mm 7 mps 752 mmHg 72%
    16:00 +9°C° 0 mm 7 mps 752 mmHg 74%
    17:00 +8°C° 0 mm 7 mps 753 mmHg 76%
    18:00 +8°C° 0 mm 6 mps 753 mmHg 78%
    19:00 +8°C° 0.2 mm 6 mps 753 mmHg 80%
    20:00 +8°C° 0.2 mm 6 mps 753 mmHg 83%
    21:00 +8°C° 0.2 mm 6 mps 753 mmHg 85%
    22:00 +9°C° 0.4 mm 7 mps 752 mmHg 84%
    23:00 +9°C° 0.4 mm 8 mps 752 mmHg 83%

    22 December, Saturday

    Time Temperature Precipitation Wind Pressure Humidity
    00:00 +10°C° 0.4 mm 8 mps 752 mmHg 82%
    01:00 +9°C° 0 mm 8 mps 753 mmHg 80%
    02:00 +9°C° 0 mm 8 mps 753 mmHg 78%
    03:00 +7°C° 0 mm 8 mps 754 mmHg 76%
    04:00 +8°C° 0 mm 7 mps 755 mmHg 78%
    05:00 +6°C° 0 mm 7 mps 756 mmHg 80%
    06:00 +7°C° 0 mm 6 mps 757 mmHg 82%
    07:00 +7°C° 0 mm 6 mps 757 mmHg 83%
    08:00 +7°C° 0 mm 6 mps 758 mmHg 84%
    09:00 +7°C° 0 mm 6 mps 758 mmHg 85%
    10:00 +8°C° 0 mm 6 mps 759 mmHg 82%
    11:00 +8°C° 0 mm 6 mps 759 mmHg 79%
    12:00 +9°C° 0 mm 6 mps 759 mmHg 76%
    13:00 +9°C° 0 mm 6 mps 759 mmHg 77%
    14:00 +9°C° 0 mm 5 mps 760 mmHg 77%
    15:00 +8°C° 0 mm 5 mps 760 mmHg 77%
    16:00 +8°C° 0 mm 5 mps 760 mmHg 79%
    17:00 +7°C° 0 mm 5 mps 761 mmHg 80%
    18:00 +7°C° 0 mm 5 mps 761 mmHg 82%
    19:00 +7°C° 0 mm 4 mps 762 mmHg 82%
    20:00 +6°C° 0 mm 4 mps 762 mmHg 83%
    21:00 +6°C° 0 mm 4 mps 763 mmHg 83%
    22:00 +6°C° 0 mm 4 mps 763 mmHg 83%
    23:00 +6°C° 0 mm 4 mps 763 mmHg 84%

    23 December, Sunday

    Time Temperature Precipitation Wind Pressure Humidity
    00:00 +6°C° 0 mm 4 mps 764 mmHg 84%
    01:00 +6°C° 0 mm 4 mps 764 mmHg 85%
    02:00 +5°C° 0 mm 4 mps 764 mmHg 86%
    03:00 +5°C° 0 mm 4 mps 764 mmHg 86%
    04:00 +5°C° 0 mm 3 mps 764 mmHg 87%
    05:00 +5°C° 0 mm 3 mps 765 mmHg 88%
    06:00 +5°C° 0 mm 3 mps 765 mmHg 89%
    07:00 +5°C° 0 mm 3 mps 765 mmHg 90%
    08:00 +5°C° 0 mm 3 mps 766 mmHg 90%
    09:00 +5°C° 0 mm 3 mps 766 mmHg 91%
    10:00 +5°C° 0 mm 3 mps 766 mmHg 87%
    11:00 +7°C° 0 mm 3 mps 767 mmHg 83%
    12:00 +8°C° 0 mm 3 mps 767 mmHg 79%
    13:00 +8°C° 0 mm 3 mps 767 mmHg 80%
    14:00 +8°C° 0 mm 2 mps 767 mmHg 81%
    15:00 +8°C° 0 mm 2 mps 767 mmHg 82%
    16:00 +7°C° 0 mm 2 mps 768 mmHg 84%
    17:00 +7°C° 0 mm 2 mps 768 mmHg 86%
    18:00 +6°C° 0 mm 2 mps 768 mmHg 88%
    19:00 +7°C° 0 mm 1 mps 769 mmHg 87%
    20:00 +7°C° 0 mm 1 mps 769 mmHg 87%
    21:00 +7°C° 0 mm 1 mps 770 mmHg 86%
    22:00 +7°C° 0 mm 1 mps 770 mmHg 86%
    23:00 +6°C° 0 mm 1 mps 770 mmHg 85%

    24 December, Monday

    Time Temperature Precipitation Wind Pressure Humidity
    00:00 +6°C° 0 mm 1 mps 771 mmHg 85%
    01:00 +6°C° 0 mm 1 mps 771 mmHg 85%
    02:00 +6°C° 0 mm 1 mps 771 mmHg 85%
    03:00 +5°C° 0 mm 0 mps 771 mmHg 85%
    04:00 +6°C° 0 mm 1 mps 771 mmHg 84%
    05:00 +6°C° 0 mm 1 mps 771 mmHg 84%
    06:00 +6°C° 0 mm 1 mps 771 mmHg 83%
    07:00 +6°C° 0.2 mm 1 mps 771 mmHg 84%
    08:00 +6°C° 0.2 mm 1 mps 772 mmHg 84%
    09:00 +6°C° 0.2 mm 1 mps 772 mmHg 85%
    10:00 +6°C° 0.1 mm 2 mps 772 mmHg 85%
    11:00 +6°C° 0.1 mm 2 mps 772 mmHg 85%
    12:00 +6°C° 0.1 mm 2 mps 771 mmHg 85%
    13:00 +7°C° 0.1 mm 2 mps 771 mmHg 86%
    14:00 +7°C° 0.1 mm 2 mps 771 mmHg 88%
    15:00 +7°C° 0.1 mm 2 mps 770 mmHg 90%
    16:00 +7°C° 0.4 mm 3 mps 770 mmHg 91%
    17:00 +7°C° 0.4 mm 3 mps 770 mmHg 92%
    18:00 +7°C° 0.4 mm 3 mps 770 mmHg 93%
    19:00 +7°C° 0.1 mm 3 mps 770 mmHg 93%
    20:00 +7°C° 0.1 mm 3 mps 770 mmHg 94%
    21:00 +7°C° 0.1 mm 2 mps 770 mmHg 94%
    22:00 +8°C° 0 mm 2 mps 769 mmHg 95%
    23:00 +8°C° 0 mm 2 mps 769 mmHg 95%
    Show more